• In Deutschland
  • Länderverzeichnis
  • Für 7 Tage
  • Wassertemperatur
  • Satellitenkarten
  • Wetterkarte
  • Widgets
  • user-avatar
    Anmelden

    Stündliche Wetter Okoyo

    Heute, 21 August, Montag

    Zeit Temperatur Niederschläge Wind Luftdruck Luftfeuchtigkeit
    00:00 +26°C° 0,2 mm 1 m/S 725 mmHg 83%
    01:00 +25°C° 0,2 mm 1 m/S 725 mmHg 84%
    02:00 +25°C° 0 mm 1 m/S 725 mmHg 85%
    03:00 +25°C° 0 mm 1 m/S 724 mmHg 85%
    04:00 +25°C° 0 mm 1 m/S 724 mmHg 86%
    05:00 +25°C° 0 mm 2 m/S 724 mmHg 85%
    06:00 +25°C° 0 mm 2 m/S 724 mmHg 83%
    07:00 +25°C° 0 mm 3 m/S 725 mmHg 82%
    08:00 +27°C° 0 mm 3 m/S 725 mmHg 75%
    09:00 +29°C° 0 mm 3 m/S 725 mmHg 67%
    10:00 +31°C° 0 mm 3 m/S 726 mmHg 59%
    11:00 +31°C° 0 mm 3 m/S 725 mmHg 56%
    12:00 +32°C° 0 mm 2 m/S 724 mmHg 53%
    13:00 +34°C° 0 mm 2 m/S 723 mmHg 50%
    14:00 +34°C° 0,3 mm 2 m/S 723 mmHg 51%
    15:00 +32°C° 0,3 mm 2 m/S 722 mmHg 51%
    16:00 +32°C° 0,3 mm 2 m/S 722 mmHg 52%
    17:00 +31°C° 0,8 mm 2 m/S 722 mmHg 59%
    18:00 +29°C° 0,8 mm 2 m/S 722 mmHg 65%
    19:00 +28°C° 0,8 mm 2 m/S 723 mmHg 72%
    20:00 +27°C° 0,4 mm 2 m/S 723 mmHg 74%
    21:00 +27°C° 0,4 mm 2 m/S 724 mmHg 75%
    22:00 +27°C° 0,4 mm 2 m/S 724 mmHg 77%
    23:00 +26°C° 0 mm 3 m/S 724 mmHg 78%

    Morgen, 22 August, Dienstag

    Zeit Temperatur Niederschläge Wind Luftdruck Luftfeuchtigkeit
    00:00 +26°C° 0 mm 3 m/S 724 mmHg 79%
    01:00 +25°C° 0 mm 3 m/S 724 mmHg 80%
    02:00 +25°C° 0 mm 3 m/S 724 mmHg 80%
    03:00 +25°C° 0 mm 3 m/S 724 mmHg 80%
    04:00 +25°C° 0 mm 3 m/S 723 mmHg 81%
    05:00 +24°C° 0,1 mm 3 m/S 724 mmHg 80%
    06:00 +24°C° 0,1 mm 3 m/S 724 mmHg 80%
    07:00 +24°C° 0,1 mm 3 m/S 725 mmHg 80%
    08:00 +26°C° 0,3 mm 3 m/S 725 mmHg 74%
    09:00 +28°C° 0,3 mm 3 m/S 725 mmHg 67%
    10:00 +29°C° 0,3 mm 3 m/S 726 mmHg 61%
    11:00 +30°C° 0,2 mm 3 m/S 725 mmHg 58%
    12:00 +31°C° 0,2 mm 2 m/S 724 mmHg 55%
    13:00 +32°C° 0,2 mm 2 m/S 723 mmHg 51%
    14:00 +32°C° 0,1 mm 2 m/S 723 mmHg 51%
    15:00 +32°C° 0,1 mm 2 m/S 722 mmHg 50%
    16:00 +32°C° 0,1 mm 2 m/S 721 mmHg 50%
    17:00 +31°C° 0,2 mm 2 m/S 722 mmHg 56%
    18:00 +30°C° 0,2 mm 2 m/S 722 mmHg 61%
    19:00 +29°C° 0,2 mm 2 m/S 722 mmHg 67%
    20:00 +28°C° 0,2 mm 2 m/S 723 mmHg 70%
    21:00 +27°C° 0,2 mm 2 m/S 724 mmHg 73%
    22:00 +27°C° 0,2 mm 2 m/S 724 mmHg 77%
    23:00 +27°C° 0,1 mm 2 m/S 724 mmHg 77%

    übermorgen, 23 August, Mittwoch

    Zeit Temperatur Niederschläge Wind Luftdruck Luftfeuchtigkeit
    00:00 +26°C° 0,1 mm 2 m/S 723 mmHg 78%
    01:00 +26°C° 0,1 mm 2 m/S 723 mmHg 79%
    02:00 +26°C° 0 mm 2 m/S 723 mmHg 79%
    03:00 +26°C° 0 mm 3 m/S 723 mmHg 80%
    04:00 +25°C° 0 mm 3 m/S 723 mmHg 81%
    05:00 +25°C° 0 mm 3 m/S 723 mmHg 81%
    06:00 +25°C° 0 mm 3 m/S 724 mmHg 81%
    07:00 +25°C° 0 mm 3 m/S 724 mmHg 82%
    08:00 +26°C° 0 mm 3 m/S 724 mmHg 76%
    09:00 +27°C° 0 mm 3 m/S 725 mmHg 71%
    10:00 +28°C° 0 mm 3 m/S 725 mmHg 66%
    11:00 +29°C° 0,1 mm 3 m/S 725 mmHg 62%
    12:00 +30°C° 0,1 mm 3 m/S 724 mmHg 58%
    13:00 +31°C° 0,1 mm 3 m/S 724 mmHg 54%
    14:00 +31°C° 0,1 mm 3 m/S 723 mmHg 54%
    15:00 +31°C° 0,1 mm 3 m/S 722 mmHg 55%
    16:00 +31°C° 0,1 mm 3 m/S 722 mmHg 55%
    17:00 +30°C° 0,2 mm 2 m/S 722 mmHg 59%
    18:00 +29°C° 0,2 mm 2 m/S 722 mmHg 64%
    19:00 +28°C° 0,2 mm 1 m/S 723 mmHg 69%
    20:00 +27°C° 0,2 mm 1 m/S 723 mmHg 71%
    21:00 +27°C° 0,2 mm 2 m/S 724 mmHg 74%
    22:00 +26°C° 0,2 mm 2 m/S 724 mmHg 77%
    23:00 +26°C° 0,2 mm 2 m/S 724 mmHg 79%

    24 August, Donnerstag

    Zeit Temperatur Niederschläge Wind Luftdruck Luftfeuchtigkeit
    00:00 +26°C° 0,2 mm 2 m/S 724 mmHg 80%
    01:00 +25°C° 0,2 mm 2 m/S 723 mmHg 82%
    02:00 +25°C° 0,6 mm 2 m/S 723 mmHg 82%
    03:00 +25°C° 0,6 mm 2 m/S 723 mmHg 83%
    04:00 +25°C° 0,6 mm 3 m/S 723 mmHg 83%
    05:00 +25°C° 0 mm 3 m/S 724 mmHg 83%
    06:00 +25°C° 0 mm 3 m/S 724 mmHg 82%
    07:00 +25°C° 0 mm 4 m/S 725 mmHg 82%
    08:00 +26°C° 0 mm 4 m/S 725 mmHg 76%
    09:00 +28°C° 0 mm 4 m/S 725 mmHg 69%
    10:00 +29°C° 0 mm 4 m/S 726 mmHg 63%
    11:00 +30°C° 0,2 mm 4 m/S 725 mmHg 59%
    12:00 +32°C° 0,2 mm 4 m/S 724 mmHg 55%
    13:00 +34°C° 0,2 mm 4 m/S 723 mmHg 51%
    14:00 +33°C° 0,2 mm 3 m/S 723 mmHg 51%
    15:00 +33°C° 0,2 mm 3 m/S 722 mmHg 51%
    16:00 +33°C° 0,2 mm 3 m/S 722 mmHg 51%
    17:00 +31°C° 0,6 mm 3 m/S 722 mmHg 58%
    18:00 +29°C° 0,6 mm 2 m/S 723 mmHg 65%
    19:00 +28°C° 0,6 mm 2 m/S 723 mmHg 71%
    20:00 +27°C° 0,6 mm 2 m/S 723 mmHg 74%
    21:00 +27°C° 0,6 mm 2 m/S 724 mmHg 77%
    22:00 +26°C° 0,6 mm 2 m/S 724 mmHg 79%
    23:00 +26°C° 0,2 mm 2 m/S 724 mmHg 79%

    25 August, Freitag

    Zeit Temperatur Niederschläge Wind Luftdruck Luftfeuchtigkeit
    00:00 +26°C° 0,2 mm 2 m/S 724 mmHg 79%
    01:00 +26°C° 0,2 mm 2 m/S 724 mmHg 80%
    02:00 +25°C° 0,1 mm 2 m/S 724 mmHg 81%
    03:00 +25°C° 0,1 mm 2 m/S 723 mmHg 81%
    04:00 +25°C° 0,1 mm 2 m/S 723 mmHg 82%
    05:00 +25°C° 0,2 mm 3 m/S 724 mmHg 83%
    06:00 +25°C° 0,2 mm 3 m/S 724 mmHg 83%
    07:00 +25°C° 0,2 mm 3 m/S 725 mmHg 84%
    08:00 +26°C° 0 mm 3 m/S 725 mmHg 77%
    09:00 +28°C° 0 mm 3 m/S 725 mmHg 71%
    10:00 +29°C° 0 mm 3 m/S 725 mmHg 64%
    11:00 +30°C° 0,3 mm 3 m/S 725 mmHg 62%
    12:00 +30°C° 0,3 mm 3 m/S 724 mmHg 60%
    13:00 +31°C° 0,3 mm 3 m/S 723 mmHg 57%
    14:00 +31°C° 0,3 mm 3 m/S 723 mmHg 57%
    15:00 +31°C° 0,3 mm 3 m/S 722 mmHg 57%
    16:00 +31°C° 0,3 mm 3 m/S 722 mmHg 57%
    17:00 +30°C° 0 mm 2 m/S 722 mmHg 62%
    18:00 +29°C° 0 mm 2 m/S 722 mmHg 66%
    19:00 +28°C° 0 mm 2 m/S 723 mmHg 70%
    20:00 +27°C° 0 mm 2 m/S 723 mmHg 72%
    21:00 +27°C° 0 mm 2 m/S 723 mmHg 74%
    22:00 +26°C° 0 mm 2 m/S 724 mmHg 76%
    23:00 +26°C° 0,1 mm 2 m/S 723 mmHg 77%

    26 August, Samstag

    Zeit Temperatur Niederschläge Wind Luftdruck Luftfeuchtigkeit
    00:00 +26°C° 0,1 mm 2 m/S 723 mmHg 78%
    01:00 +26°C° 0,1 mm 3 m/S 723 mmHg 79%
    02:00 +26°C° 0,1 mm 3 m/S 723 mmHg 79%
    03:00 +25°C° 0,1 mm 3 m/S 723 mmHg 80%
    04:00 +25°C° 0,1 mm 3 m/S 723 mmHg 81%
    05:00 +25°C° 0 mm 3 m/S 723 mmHg 81%
    06:00 +25°C° 0 mm 4 m/S 724 mmHg 81%
    07:00 +25°C° 0 mm 4 m/S 724 mmHg 81%
    08:00 +26°C° 0 mm 4 m/S 725 mmHg 75%
    09:00 +28°C° 0 mm 4 m/S 725 mmHg 70%
    10:00 +29°C° 0 mm 4 m/S 725 mmHg 64%
    11:00 +30°C° 0 mm 4 m/S 724 mmHg 61%
    12:00 +30°C° 0 mm 4 m/S 724 mmHg 59%
    13:00 +32°C° 0 mm 4 m/S 723 mmHg 56%
    14:00 +31°C° 0,5 mm 3 m/S 723 mmHg 56%
    15:00 +31°C° 0,5 mm 3 m/S 722 mmHg 56%
    16:00 +31°C° 0,5 mm 3 m/S 722 mmHg 56%
    17:00 +30°C° 0 mm 2 m/S 722 mmHg 60%
    18:00 +29°C° 0 mm 2 m/S 722 mmHg 64%
    19:00 +28°C° 0 mm 1 m/S 723 mmHg 67%
    20:00 +28°C° 0,5 mm 2 m/S 723 mmHg 70%
    21:00 +27°C° 0,5 mm 2 m/S 724 mmHg 73%
    22:00 +26°C° 0,5 mm 2 m/S 724 mmHg 76%
    23:00 +26°C° 0,3 mm 2 m/S 724 mmHg 77%
    Mehr zeigen